Powrót do katalogu

FENGYUN 1C DEB

AktywnyPO
NORAD 37474·DEBRIS·🇨🇳 China

Wystrzelony May 10, 1999 z Taiyuan Satellite Launch Center

Loading…

Następne Przeloty (najbliższe 24 godziny)

TLE

NieaktualneSource: Space-Track

Epoka: Sep 2, 2026, 21:59 UTC

1 37474U 99025EJU 26245.91659330  .00005276  00000-0  62461-3 0  9997
2 37474  99.1357 131.7867 0122970  31.1506 329.6916 14.79800731662775

Śledź FENGYUN 1C DEB w czasie rzeczywistym z AllMySat

Download on the App Store